Location: Demre
(36.2444°N, 29.9850°E)
Time: 05:40:48
(UTC+00:00)

Cosmos 2369 Rocket - Pass Details

Date: 11 March 2026
Orbit: 829 x 850 km, 71.0° (Epoch: 21 April)

Event Time Altitude Azimuth Distance (km) Brightness Sun altitude
Rises 17:01:51 0° 177° (S) 3,397 5.3 -12.5°
Reaches altitude 10° 17:04:28 10° 168° (SSE) 2,465 4.5 -13.0°
Maximum altitude 17:09:34 36° 104° (ESE) 1,325 2.7 -14.1°
Drops below altitude 10° 17:14:41 10° 40° (NE) 2,472 4.3 -15.1°
Sets 17:17:18 0° 32° (NNE) 3,408 5.1 -15.6°
